Gilze-Rijen, Netherlands

9:52 AM CEST on March 28, 2017 (GMT +0200)
Gilze-Rijen Air Base

Weather History for EHGR - December, 2012

Change the Weather History Date:

Thursday, December 27, 2012

  Actual Average Record
Temperature  
Mean Temperature 44 °F -  
Max Temperature 50 °F 41 °F 56 °F (2015)
Min Temperature 39 °F 31 °F 17 °F (1996)
Degree Days  
Heating Degree Days 20    
Moisture  
Dew Point 43 °F    
Average Humidity 91    
Maximum Humidity 100    
Minimum Humidity 76    
Precipitation  
Precipitation 0.00 in - - ()
Sea Level Pressure  
Sea Level Pressure 29.64 in    
Wind  
Wind Speed 10 mph ()    
Max Wind Speed 17 mph    
Max Gust Speed 34 mph    
Visibility 5.8 miles    
Events Fog , Rain    
Averages and records for this station are not official NWS values.
T = Trace of Precipitation, MM = Missing Value Source: Averaged Metar Reports

Daily Weather History Graph

Daily Weather History Graph

Search for Another Location

Airport or City:

Trip Planner

Search our weather history database for the weather conditions in past years. The results will help you decide how hot, cold, wet, or windy it might be!

Date:

Astronomy

Dec. 27, 2012 Rise Set
Actual Time 8:46 AM CET 4:37 PM CET
Civil Twilight 8:05 AM CET 5:17 PM CET
Nautical Twilight 7:22 AM CET 6:00 PM CET
Astronomical Twilight 6:41 AM CET 6:41 PM CET
Moon 4:10 PM CET (12/27) 7:41 AM CET (12/27)
Length of Visible Light 9h 11m
Length of Day
7h 51m
Waxing Gibbous, 99% of the Moon is Illuminated
Dec 27
Waxing Gibbous
Dec 28
Full
Jan 5
Last Quarter
Jan 11
New
Jan 19
First Quarter

Hourly Weather History & Observations

Time (CET) Temp. Windchill Dew Point Humidity Pressure Visibility Wind Dir Wind Speed Gust Speed Precip Events Conditions
12:25 AM 48.2 °F - 46.4 °F 93% 29.56 in 6.2 mi SW 17.3 mph - N/A Rain Light Rain
12:39 AM 48.2 °F - 46.4 °F 93% 29.56 in 6.2 mi SW 16.1 mph - N/A   Mostly Cloudy
12:46 AM 48.2 °F - 46.4 °F 93% 29.56 in 6.2 mi SW 16.1 mph 27.6 mph N/A   Drizzle
12:50 AM 48.2 °F - 46.4 °F 93% 29.56 in 6.2 mi SW 16.1 mph - N/A Rain Heavy Drizzle
12:55 AM 48.2 °F - 46.4 °F 93% 29.56 in 6.2 mi SW 15.0 mph 26.5 mph N/A Rain Light Rain
1:00 AM 48.2 °F - 46.4 °F 93% 29.56 in 6.2 mi SW 13.8 mph - N/A   Mostly Cloudy
1:04 AM 50.0 °F - 46.4 °F 87% 29.56 in 6.2 mi SW 12.7 mph 25.3 mph N/A   Mostly Cloudy
1:25 AM 50.0 °F - 46.4 °F 87% 29.56 in 6.2 mi WSW 15.0 mph 27.6 mph N/A Rain Light Rain
1:55 AM 50.0 °F - 44.6 °F 82% 29.56 in 6.2 mi West 17.3 mph 31.1 mph N/A   Mostly Cloudy
2:01 AM 50.0 °F - 44.6 °F 82% 29.56 in 6.2 mi West 16.1 mph 34.5 mph N/A   Mostly Cloudy
2:07 AM 50.0 °F - 44.6 °F 82% 29.56 in 6.2 mi West 17.3 mph 34.5 mph N/A   Mostly Cloudy
2:11 AM 50.0 °F - 44.6 °F 82% 29.56 in 6.2 mi West 17.3 mph 34.5 mph N/A   Overcast
2:25 AM 50.0 °F - 42.8 °F 76% 29.56 in 6.2 mi West 17.3 mph 32.2 mph N/A   Overcast
2:47 AM 48.2 °F - 42.8 °F 82% 29.59 in 6.2 mi West 16.1 mph 29.9 mph N/A   Scattered Clouds
2:55 AM 48.2 °F - 42.8 °F 82% 29.59 in 6.2 mi WSW 15.0 mph 29.9 mph N/A   Scattered Clouds
3:02 AM 48.2 °F - 42.8 °F 82% 29.59 in 6.2 mi West 15.0 mph 26.5 mph N/A   Scattered Clouds
3:25 AM 48.2 °F - 42.8 °F 82% 29.59 in 6.2 mi WSW 12.7 mph - N/A   Scattered Clouds
3:30 AM 48.2 °F - 42.8 °F 82% 29.59 in 6.2 mi WSW 13.8 mph - N/A   Scattered Clouds
3:55 AM 48.2 °F - 42.8 °F 82% 29.62 in 6.2 mi WSW 13.8 mph - N/A   Mostly Cloudy
4:14 AM 48.2 °F - 42.8 °F 82% 29.62 in 6.2 mi WSW 15.0 mph 26.5 mph N/A   Mostly Cloudy
4:17 AM 46.4 °F 40.4 °F 42.8 °F 87% 29.62 in 6.2 mi WSW 13.8 mph 26.5 mph N/A   Mostly Cloudy
4:25 AM 46.4 °F 40.4 °F 42.8 °F 87% 29.62 in 6.2 mi WSW 13.8 mph - N/A   Mostly Cloudy
4:36 AM 46.4 °F 40.7 °F 41.0 °F 81% 29.62 in 6.2 mi SW 12.7 mph - N/A   Mostly Cloudy
4:55 AM 46.4 °F 40.7 °F 41.0 °F 81% 29.62 in 6.2 mi WSW 12.7 mph - N/A   Partly Cloudy
5:10 AM 46.4 °F 41.5 °F 41.0 °F 81% 29.62 in 6.2 mi SW 10.4 mph - N/A   Scattered Clouds
5:20 AM 46.4 °F 41.5 °F 41.0 °F 81% 29.62 in 6.2 mi WSW 10.4 mph - N/A   Partly Cloudy
5:25 AM 46.4 °F 41.5 °F 41.0 °F 81% 29.62 in 6.2 mi WSW 10.4 mph - N/A   Partly Cloudy
5:36 AM 46.4 °F 41.1 °F 41.0 °F 81% 29.62 in 6.2 mi SW 11.5 mph - N/A   Scattered Clouds
5:38 AM 46.4 °F 41.1 °F 41.0 °F 81% 29.62 in 6.2 mi SW 11.5 mph - N/A   Partly Cloudy
5:55 AM 46.4 °F 41.5 °F 41.0 °F 81% 29.62 in 6.2 mi SW 10.4 mph - N/A   Partly Cloudy
6:14 AM 46.4 °F 41.5 °F 41.0 °F 81% 29.62 in 6.2 mi SW 10.4 mph - N/A   Scattered Clouds
6:25 AM 46.4 °F 41.1 °F 42.8 °F 87% 29.62 in 6.2 mi SW 11.5 mph - N/A   Mostly Cloudy
6:30 AM 46.4 °F 41.1 °F 41.0 °F 81% 29.62 in 6.2 mi SW 11.5 mph - N/A   Partly Cloudy
6:33 AM 46.4 °F 41.5 °F 42.8 °F 87% 29.62 in 6.2 mi SW 10.4 mph - N/A   Scattered Clouds
6:46 AM 46.4 °F 41.9 °F 41.0 °F 81% 29.62 in 6.2 mi SW 9.2 mph - N/A   Scattered Clouds
6:55 AM 44.6 °F 39.2 °F 42.8 °F 93% 29.62 in 6.2 mi SW 10.4 mph - N/A   Partly Cloudy
7:02 AM 46.4 °F 41.5 °F 42.8 °F 87% 29.62 in 6.2 mi SW 10.4 mph - N/A   Scattered Clouds
7:12 AM 44.6 °F 39.7 °F 42.8 °F 93% 29.62 in 6.2 mi SW 9.2 mph - N/A   Scattered Clouds
7:21 AM 46.4 °F 41.9 °F 42.8 °F 87% 29.62 in 6.2 mi SSW 9.2 mph - N/A   Mostly Cloudy
7:25 AM 44.6 °F 39.7 °F 42.8 °F 93% 29.62 in 6.2 mi SSW 9.2 mph - N/A   Mostly Cloudy
7:55 AM 46.4 °F 42.4 °F 42.8 °F 87% 29.59 in 6.2 mi SW 8.1 mph - N/A   Overcast
8:25 AM 46.4 °F 41.1 °F 42.8 °F 87% 29.59 in 6.2 mi SW 11.5 mph - N/A   Mostly Cloudy
8:29 AM 46.4 °F 41.1 °F 42.8 °F 87% 29.59 in 6.2 mi SW 11.5 mph - N/A   Mostly Cloudy
8:49 AM 46.4 °F 41.1 °F 44.6 °F 93% 29.59 in 6.2 mi SSW 11.5 mph - N/A   Mostly Cloudy
8:55 AM 46.4 °F 41.1 °F 42.8 °F 87% 29.59 in 6.2 mi SW 11.5 mph - N/A   Overcast
9:11 AM 46.4 °F 41.1 °F 42.8 °F 87% 29.59 in 6.2 mi SW 11.5 mph - N/A   Partly Cloudy
9:25 AM 46.4 °F 41.1 °F 42.8 °F 87% 29.59 in 6.2 mi SW 11.5 mph - N/A   Partly Cloudy
9:55 AM 46.4 °F 41.5 °F 42.8 °F 87% 29.59 in 6.2 mi SW 10.4 mph - N/A   Partly Cloudy
10:25 AM 46.4 °F 41.5 °F 42.8 °F 87% 29.59 in 6.2 mi SSW 10.4 mph - N/A   Partly Cloudy
10:55 AM 46.4 °F 41.9 °F 44.6 °F 93% 29.56 in 6.2 mi SSW 9.2 mph - N/A   Mostly Cloudy
11:25 AM 48.2 °F - 44.6 °F 87% 29.56 in 6.2 mi SSW 9.2 mph - N/A   Overcast
11:46 AM 48.2 °F - 44.6 °F 87% 29.56 in 6.2 mi SSW 10.4 mph - N/A   Scattered Clouds
11:55 AM 48.2 °F - 44.6 °F 87% 29.56 in 6.2 mi SSW 11.5 mph - N/A   Mostly Cloudy
12:01 PM 48.2 °F - 44.6 °F 87% 29.56 in 6.2 mi SSW 9.2 mph - N/A   Overcast
12:05 PM 48.2 °F - 44.6 °F 87% 29.56 in 6.2 mi SSW 9.2 mph - N/A   Overcast
12:07 PM 48.2 °F - 44.6 °F 87% 29.56 in 6.2 mi SSW 10.4 mph - N/A   Mostly Cloudy
12:25 PM 48.2 °F - 44.6 °F 87% 29.56 in 6.2 mi SSW 9.2 mph - N/A   Mostly Cloudy
12:32 PM 48.2 °F - 44.6 °F 87% 29.53 in 6.2 mi SSW 10.4 mph - N/A   Mostly Cloudy
12:39 PM 48.2 °F - 44.6 °F 87% 29.53 in 6.2 mi SSW 9.2 mph - N/A   Scattered Clouds
12:55 PM 48.2 °F - 44.6 °F 87% 29.53 in 6.2 mi SW 8.1 mph - N/A   Overcast
1:25 PM 48.2 °F - 44.6 °F 87% 29.53 in 6.2 mi SW 4.6 mph - N/A   Overcast
1:55 PM 48.2 °F - 44.6 °F 87% 29.50 in 6.2 mi SW 4.6 mph - N/A   Mostly Cloudy
2:05 PM 48.2 °F - 44.6 °F 87% 29.50 in 6.2 mi SSW 3.5 mph - N/A   Mostly Cloudy
2:10 PM 48.2 °F - 44.6 °F 87% 29.50 in 6.2 mi SSW 2.3 mph - N/A   Scattered Clouds
2:16 PM 48.2 °F - 44.6 °F 87% 29.50 in 6.2 mi SSW 2.3 mph - N/A   Scattered Clouds
2:25 PM 48.2 °F - 44.6 °F 87% 29.50 in 6.2 mi South 2.3 mph - N/A   Mostly Cloudy
2:55 PM 48.2 °F - 46.4 °F 93% 29.50 in 6.2 mi SSW 1.2 mph - N/A   Drizzle
3:00 PM 48.2 °F - 46.4 °F 93% 29.50 in 4.3 mi SSW 1.2 mph - N/A Rain Light Rain
3:04 PM 48.2 °F - 46.4 °F 93% 29.50 in - Calm Calm - N/A Rain Light Rain
3:19 PM 46.4 °F 44.3 °F 44.6 °F 93% 29.53 in 5.0 mi SW 4.6 mph - N/A Rain Rain Showers
3:25 PM 46.4 °F 44.3 °F 44.6 °F 93% 29.53 in 6.2 mi SW 4.6 mph - N/A Rain Light Rain Showers
3:31 PM 44.6 °F 40.7 °F 44.6 °F 100% 29.53 in 6.2 mi SW 6.9 mph - N/A Rain Rain Showers
3:45 PM 44.6 °F 42.2 °F 44.6 °F 100% 29.53 in 6.2 mi WNW 4.6 mph - N/A Rain Light Rain Showers
3:50 PM 44.6 °F 42.2 °F 44.6 °F 100% 29.53 in 5.6 mi NW 4.6 mph - N/A Rain Light Rain
3:55 PM 44.6 °F 42.2 °F 44.6 °F 100% 29.53 in 5.6 mi NW 4.6 mph - N/A Rain Light Rain
4:05 PM 44.6 °F 43.1 °F 44.6 °F 100% 29.53 in 6.2 mi WNW 3.5 mph - N/A Rain Light Rain
4:12 PM 44.6 °F 43.1 °F 44.6 °F 100% 29.56 in 6.2 mi NW 3.5 mph - N/A Rain Light Rain
4:25 PM 44.6 °F 42.2 °F 44.6 °F 100% 29.56 in 5.6 mi NNW 4.6 mph - N/A Rain Light Rain
4:32 PM 44.6 °F 42.2 °F 44.6 °F 100% 29.56 in 4.3 mi NNW 4.6 mph - N/A Rain Light Rain Showers
4:36 PM 44.6 °F 42.2 °F 44.6 °F 100% 29.56 in 6.2 mi NNW 4.6 mph - N/A Rain Light Rain Showers
4:45 PM 44.6 °F 42.2 °F 44.6 °F 100% 29.56 in 4.3 mi NNW 4.6 mph - N/A Rain Light Rain
4:50 PM 44.6 °F 42.2 °F 44.6 °F 100% 29.56 in 6.2 mi NNW 4.6 mph - N/A Rain Light Rain
4:55 PM 44.6 °F 42.2 °F 44.6 °F 100% 29.56 in 6.2 mi NNW 4.6 mph - N/A Rain Rain Showers
5:12 PM 44.6 °F 43.1 °F 42.8 °F 93% 29.59 in 5.6 mi North 3.5 mph - N/A Rain Rain Showers
5:25 PM 44.6 °F 41.4 °F 42.8 °F 93% 29.59 in 6.2 mi NNE 5.8 mph - N/A Rain Light Rain
5:55 PM 44.6 °F 43.1 °F 42.8 °F 93% 29.62 in 6.2 mi North 3.5 mph - N/A Rain Light Rain
6:06 PM 44.6 °F 41.4 °F 44.6 °F 100% 29.62 in 5.6 mi North 5.8 mph - N/A Rain Light Rain
6:15 PM 44.6 °F 40.7 °F 44.6 °F 100% 29.62 in 6.2 mi North 6.9 mph - N/A Rain Light Rain
6:25 PM 44.6 °F 40.7 °F 44.6 °F 100% 29.65 in 6.2 mi NNW 6.9 mph - N/A Rain Light Rain
6:55 PM 44.6 °F 40.7 °F 42.8 °F 93% 29.68 in 6.2 mi NNW 6.9 mph - N/A Rain Light Rain
7:25 PM 44.6 °F 40.7 °F 42.8 °F 93% 29.71 in 6.2 mi NW 6.9 mph - N/A   Overcast
7:55 PM 44.6 °F 41.4 °F 42.8 °F 93% 29.74 in 6.2 mi NW 5.8 mph - N/A   Overcast
7:56 PM 44.6 °F 40.7 °F 42.8 °F 93% 29.74 in 6.2 mi NW 6.9 mph - N/A   Overcast
8:11 PM 44.6 °F 40.2 °F 42.8 °F 93% 29.77 in 6.2 mi NW 8.1 mph - N/A   Drizzle
8:25 PM 44.6 °F 40.2 °F 42.8 °F 93% 29.77 in 6.2 mi WNW 8.1 mph - N/A   Mostly Cloudy
8:55 PM 44.6 °F 40.2 °F 42.8 °F 93% 29.83 in 6.2 mi WNW 8.1 mph - N/A   Overcast
8:56 PM 44.6 °F 39.7 °F 44.6 °F 100% 29.83 in 6.2 mi WNW 9.2 mph - N/A   Overcast
9:07 PM 44.6 °F 39.7 °F 44.6 °F 100% 29.83 in 6.2 mi WNW 9.2 mph - N/A   Overcast
9:13 PM 44.6 °F 39.7 °F 44.6 °F 100% 29.83 in 6.2 mi WNW 9.2 mph - N/A   Mostly Cloudy
9:25 PM 44.6 °F 39.7 °F 44.6 °F 100% 29.86 in 6.2 mi WNW 9.2 mph - N/A   Overcast
9:55 PM 44.6 °F 39.7 °F 44.6 °F 100% 29.89 in 6.2 mi WNW 9.2 mph - N/A Rain Light Rain
10:25 PM 44.6 °F 40.7 °F 44.6 °F 100% 29.92 in 6.2 mi NW 6.9 mph - N/A   Mostly Cloudy
10:55 PM 41.0 °F 37.1 °F 41.0 °F 100% 29.95 in 5.0 mi WNW 5.8 mph - N/A   Mostly Cloudy
11:03 PM 41.0 °F 37.1 °F 41.0 °F 100% 29.95 in 4.3 mi WNW 5.8 mph - N/A   Partly Cloudy
11:15 PM 41.0 °F 38.0 °F 41.0 °F 100% 29.98 in - NW 4.6 mph - N/A   Mist
11:19 PM 41.0 °F 38.0 °F 41.0 °F 100% 29.98 in - NW 4.6 mph - N/A   Mist
11:25 PM 41.0 °F 39.0 °F 41.0 °F 100% 29.98 in - NW 3.5 mph - N/A   Partly Cloudy
11:29 PM 41.0 °F 39.0 °F 41.0 °F 100% 29.98 in 1.4 mi NW 3.5 mph - N/A   Scattered Clouds
11:33 PM 41.0 °F 39.0 °F 41.0 °F 100% 29.98 in 0.9 mi WNW 3.5 mph - N/A   Mostly Cloudy
11:43 PM 41.0 °F 39.0 °F 41.0 °F 100% 30.01 in 0.4 mi WNW 3.5 mph - N/A Fog Fog
11:47 PM 39.2 °F 37.0 °F 39.2 °F 100% 30.01 in 0.8 mi WNW 3.5 mph - N/A   Overcast
11:51 PM 39.2 °F - 39.2 °F 100% 30.01 in 1.1 mi WNW 2.3 mph - N/A   Overcast
11:55 PM 39.2 °F 37.0 °F 39.2 °F 100% 30.01 in - WNW 3.5 mph - N/A   Overcast